Hanford, CA

5:12 PM PST on December 07, 2016 (GMT -0800)
Hanford Municipal

Weather History for KHJO - December, 2011

Change the Weather History Date:

Monday, December 19, 2011

  Actual Average Record
Temperature  
Mean Temperature 39 °F 44 °F  
Max Temperature 50 °F 53 °F 67 °F (2005)
Min Temperature 28 °F 34 °F 25 °F (2006)
Degree Days  
Heating Degree Days 26    
Month to date heating degree days 424  
Since 1 July heating degree days 930  
Cooling Degree Days 0    
Month to date cooling degree days 0  
Year to date cooling degree days 1664  
Moisture  
Dew Point 34 °F    
Average Humidity 81    
Maximum Humidity 100    
Minimum Humidity 61    
Precipitation  
Precipitation 0.00 in 0.07 in 0.82 in (2010)
Month to date precipitation 0.01 0.68  
Year to date precipitation 7.42 9.15  
Since 1 July precipitation 1.24  
Snow  
Snow 0.00 in - - ()
Month to date snowfall 0.0  
Since 1 July snowfall 0.0  
Snow Depth 0.00 in    
Sea Level Pressure  
Sea Level Pressure 30.10 in    
Wind  
Wind Speed 2 mph (ESE)    
Max Wind Speed 7 mph    
Max Gust Speed -    
Visibility 1 miles    
Events Fog    
T = Trace of Precipitation, MM = Missing Value Source: NWS Daily Summary

Daily Weather History Graph

Daily Weather History Graph

Search for Another Location

Airport or City:

Trip Planner

Search our weather history database for the weather conditions in past years. The results will help you decide how hot, cold, wet, or windy it might be!

Date:

Astronomy

Dec. 19, 2011 Rise Set
Actual Time 7:05 AM PST 4:46 PM PST
Civil Twilight 6:36 AM PST 5:14 PM PST
Nautical Twilight 6:03 AM PST 5:47 PM PST
Astronomical Twilight 5:32 AM PST 6:18 PM PST
Moon 1:27 AM PST (12/19) 12:42 PM PST (12/19)
Length of Visible Light 10h 38m
Length of Day
9h 41m
Waning Crescent, 30% of the Moon is Illuminated
Dec 19
Waning Crescent
Dec 24
New
Dec 31
First Quarter
Jan 8
Full
Jan 16
Last Quarter

Hourly Weather History & Observations

Time (PST) Temp. Windchill Dew Point Humidity Pressure Visibility Wind Dir Wind Speed Gust Speed Precip Events Conditions
12:36 AM 35.6 °F - 32.0 °F 87% 30.11 in 1.5 mi Calm Calm - N/A   Clear
12:53 AM 35.1 °F - 30.0 °F 82% 30.12 in 1.2 mi Calm Calm - N/A   Haze
1:09 AM 33.8 °F - 30.2 °F 87% 30.11 in 0.8 mi Calm Calm - N/A   Clear
1:21 AM 32.0 °F - 28.4 °F 87% 30.11 in 0.2 mi Calm Calm - N/A Fog Fog
1:50 AM 30.2 °F - 28.4 °F 93% 30.10 in 0.2 mi Calm Calm - N/A Fog Light Freezing Fog
1:53 AM 30.0 °F - 28.9 °F 96% 30.11 in 0.2 mi Calm Calm - N/A Fog Light Freezing Fog
2:53 AM 28.9 °F - 26.1 °F 89% 30.10 in 0.2 mi Calm Calm - N/A Fog Light Freezing Fog
3:11 AM 30.2 °F - 28.4 °F 93% 30.09 in 0.2 mi Calm Calm - N/A Fog Light Freezing Fog
3:53 AM 34.0 °F - 32.0 °F 92% 30.09 in 0.2 mi Calm Calm - N/A Fog Fog
4:53 AM 34.0 °F 31.0 °F 32.0 °F 92% 30.08 in 0.2 mi NNW 3.5 mph - N/A Fog Fog
5:53 AM 33.1 °F - 32.0 °F 96% 30.08 in 0.2 mi Calm Calm - N/A Fog Fog
6:53 AM 34.0 °F - 32.0 °F 92% 30.09 in 0.2 mi Calm Calm - N/A Fog Fog
7:53 AM 34.0 °F 31.0 °F 32.0 °F 92% 30.11 in 0.2 mi East 3.5 mph - N/A Fog Fog
8:53 AM 36.0 °F - 34.0 °F 93% 30.11 in 0.2 mi Calm Calm - N/A Fog Fog
10:18 AM 39.2 °F 35.0 °F 37.4 °F 93% 30.11 in 0.2 mi WSW 5.8 mph - N/A Fog Fog
11:10 AM 39.2 °F - 37.4 °F 93% 30.12 in 0.5 mi Calm Calm - N/A Fog Fog
11:32 AM 39.2 °F - 37.4 °F 93% 30.11 in 1.0 mi Calm Calm - N/A   Overcast
11:53 AM 39.9 °F - 37.9 °F 93% 30.12 in 1.5 mi North - - N/A   Overcast
12:32 PM 44.6 °F 43.1 °F 37.4 °F 76% 30.09 in 2.0 mi West 3.5 mph - N/A   Haze
12:37 PM 44.6 °F 42.2 °F 37.4 °F 76% 30.08 in 2.5 mi West 4.6 mph - N/A   Haze
12:53 PM 46.0 °F 43.9 °F 37.9 °F 73% 30.09 in 2.5 mi NW 4.6 mph - N/A   Haze
1:53 PM 48.9 °F - 37.9 °F 66% 30.07 in 2.5 mi Calm Calm - N/A   Haze
2:53 PM 50.0 °F - 37.9 °F 63% 30.07 in 3.0 mi NE 3.5 mph - N/A   Haze
3:53 PM 50.0 °F - 37.9 °F 63% 30.07 in 3.0 mi North - - N/A   Haze
4:25 PM 46.4 °F - 37.4 °F 71% 30.07 in 2.5 mi North - - N/A   Haze
4:53 PM 44.1 °F - 37.0 °F 76% 30.09 in 2.5 mi Calm Calm - N/A   Haze
5:06 PM 42.8 °F 41.1 °F 37.4 °F 81% 30.08 in 3.0 mi East 3.5 mph - N/A   Haze
5:45 PM 39.2 °F 34.2 °F 35.6 °F 87% 30.08 in 2.5 mi ESE 6.9 mph - N/A   Haze
5:53 PM 41.0 °F 37.1 °F 36.0 °F 82% 30.09 in 2.5 mi ESE 5.8 mph - N/A   Haze
6:53 PM 39.0 °F 34.8 °F 36.0 °F 89% 30.11 in 2.0 mi ESE 5.8 mph - N/A   Clear
7:06 PM 37.4 °F 34.9 °F 35.6 °F 93% 30.10 in 1.8 mi ESE 3.5 mph - N/A   Clear
7:53 PM 37.0 °F 31.6 °F 34.0 °F 89% 30.12 in 1.5 mi ESE 6.9 mph - N/A   Clear
8:53 PM 36.0 °F 33.3 °F 34.0 °F 93% 30.14 in 1.5 mi East 3.5 mph - N/A   Clear
9:53 PM 35.1 °F 31.0 °F 32.0 °F 89% 30.14 in 1.0 mi ESE 4.6 mph - N/A   Clear
10:37 PM 33.8 °F 29.6 °F 30.2 °F 87% 30.12 in 0.5 mi SE 4.6 mph - N/A Fog Fog
10:53 PM 34.0 °F 29.8 °F 30.9 °F 89% 30.14 in 1.2 mi ESE 4.6 mph - N/A   Clear
11:53 PM 34.0 °F 31.0 °F 30.9 °F 89% 30.13 in 1.2 mi SE 3.5 mph - 0.01 in   Clear